This is the latest recevied weather packets stored in our database for station/object DF7PN-WX. If no packets are shown the sender has not sent any weather packets the latest 1 day(s).
| Time | Temp. | Humidity | Pressure | Rain* | Wind** | Luminosity | Snow |
|---|---|---|---|---|---|---|---|
| 1777977374 | 20° C | 54% | 1009.2 hPa | - | 2.24 m/s, 240° | - | - |
| 1777977074 | 20.56° C | 54% | 1009.2 hPa | - | 2.24 m/s, 240° | - | - |
| 1777976774 | 20.56° C | 54% | 1009.2 hPa | - | 1.34 m/s, 243° | - | - |
| 1777976474 | 20.56° C | 52% | 1009.3 hPa | - | 1.34 m/s, 243° | - | - |
| 1777976174 | 20.56° C | 55% | 1009.3 hPa | - | 1.34 m/s, 243° | - | - |
| 1777975874 | 20.56° C | 56% | 1009.3 hPa | - | 1.34 m/s, 243° | - | - |
| 1777975574 | 20° C | 57% | 1009.3 hPa | - | 1.34 m/s, 243° | - | - |
| 1777975274 | 20° C | 57% | 1009.3 hPa | - | 1.34 m/s, 243° | - | - |
| 1777974974 | 21.11° C | 55% | 1009.3 hPa | - | 1.34 m/s, 243° | - | - |
| 1777974674 | 21.11° C | 53% | 1009.3 hPa | - | 1.34 m/s, 243° | - | - |
| 1777974373 | 21.11° C | 53% | 1009.4 hPa | - | 1.34 m/s, 243° | - | - |
| 1777974073 | 21.11° C | 54% | 1009.4 hPa | - | 1.34 m/s, 243° | - | - |
| 1777973774 | 20.56° C | 58% | 1009.4 hPa | - | 0.89 m/s, 238° | - | - |
| 1777973473 | 20° C | 62% | 1009.4 hPa | - | 0.89 m/s, 238° | - | - |
| 1777973173 | 19.44° C | 60% | 1009.5 hPa | - | 0.89 m/s, 238° | - | - |
| 1777972873 | 19.44° C | 61% | 1009.5 hPa | - | 0.89 m/s, 238° | - | - |
| 1777972573 | 19.44° C | 63% | 1009.5 hPa | - | 0.89 m/s, 238° | - | - |
| 1777972273 | 18.89° C | 64% | 1009.6 hPa | - | 0.89 m/s, 238° | - | - |
| 1777971973 | 18.89° C | 65% | 1009.6 hPa | - | 0.89 m/s, 238° | - | - |
| 1777971673 | 18.89° C | 66% | 1009.6 hPa | - | 0 m/s | - | - |
| 1777971373 | 18.89° C | 70% | 1009.6 hPa | - | 0 m/s | - | - |
| 1777971073 | 18.89° C | 67% | 1009.7 hPa | - | 0.45 m/s, 238° | - | - |
| 1777970773 | 18.89° C | 67% | 1009.7 hPa | - | 0.45 m/s, 238° | - | - |
| 1777970473 | 18.33° C | 68% | 1009.7 hPa | - | 0.45 m/s, 238° | - | - |
| 1777970172 | 18.89° C | 68% | 1009.8 hPa | - | 0.89 m/s, 238° | - | - |
* Rain since midnight (hover to see other rain measurements)
** Current wind speed in m/s (hover to see current wind gust speed)